Location: *
(43.0833°N, 13.0500°E)
Time: 02:28:18
(UTC+00:00)

Cosmos 1980 Rocket - Pass Details

Date: 15 November 2019
Orbit: 828 x 851 km, 71.0° (Epoch: 15 December)

Event Time Altitude Azimuth Distance (km) Brightness Sun altitude
Rises 16:51:06 0° 166° (SSE) 3,378 5.3 -12.3°
Reaches altitude 10° 16:53:58 10° 153° (SSE) 2,452 4.5 -12.8°
Maximum altitude 16:58:21 24° 101° (ESE) 1,688 3.2 -13.6°
Enters shadow 17:00:18 20° 73° (ENE) 1,869 3.4 -13.9°
